Location: Newark
(7.0858°N, 171.3717°E)
Time: 09:07:56
(UTC+00:00)

S-56A Canister/Altair - Pass Details

Date: 04 December 2020
Orbit: 633 x 2499 km, 38.9° (Epoch: 27 January)

Event Time Altitude Azimuth Distance (km) Brightness Sun altitude
Rises 02:23:12 0° 218° (SW) 5,674 12.6 48.7°
Reaches altitude 10° 02:26:45 10° 214° (SSW) 4,840 12.5 48.1°
Maximum altitude 02:40:55 61° 137° (SE) 2,750 11.0 45.6°
Drops below altitude 10° 02:55:08 10° 61° (ENE) 4,877 11.3 42.9°
Sets 02:58:42 0° 58° (ENE) 5,720 11.5 42.2°
